www.pogodaiklimat.ru

Погода и климат >> Архив погоды >> Украина >> Великий Бурлук


ПОГОДА в Великом Бурлуке

  • Прогноз погоды в Великом Бурлуке
  • Монитор погоды в Великом Бурлуке

АРХИВ ПОГОДЫ в Великом Бурлуке

Время (UTC), дата Ветер
(напр.,м/с)
 
Видим.   Явления Облачность Т
(С)
Тd
(С)
f
(%)
Тe
(С)
Тes
(С)
Комфортность P
(гПа)
Po
(гПа)
Тmin
(С)
Tmax
(С)
R
(мм)
R24
(мм)
S
(см)
09 19.06 В 3 10 км 3/3 600 м
[Cu med, cong]
+27.1 +15.8 50 +30 +40 душно 1014.0 994.0
12 19.06 СВ 4 10 км 8/8 600 м
[Cu med, cong]
+29.4 +15.1 42 +32 +34 душно 1013.5 993.7
15 19.06 СВ 4 10 км 8/8 600 м
[Cb calv]
+28.6 +14.4 42 +31 +31 жарко 1013.3 993.4
18 19.06 С 3 10 км 3/3 600 м
[Sc diur, vesp Ci fib]
+23.7 +15.5 60 +27 +27 жарко 1014.1 993.9 +29.7
21 19.06 С 2 10 км ясно +19.4 +14.8 75 +22 +22 комфорт 1015.3 994.8
00 20.06 С 2 10 км 1/0
[Ci fib]
+17.7 +13.8 78 +18 +18 1015.8 995.1
03 20.06 С 2 10 км 3/0
[Ci fib]
+17.9 +14.0 78 +18 +20 1016.4 995.7
06 20.06 В 3 10 км 3/0
[Ci]
+25.5 +14.3 50 +28 +36 жарко 1016.1 996.0 +16.6
09 20.06 В 5 10 км 8/5 600 м
[Cu med, cong Ci]
+28.8 +10.9 33 +29 +33 жарко 1015.6 995.7
12 20.06 СВ 3 10 км 9/6 600 м
[Cu med, cong Ci]
+28.4 +11.9 36 +29 +33 жарко 1015.2 995.3
15 20.06 С 4 10 км 6/4 600 м
[Cu med, cong Ac trans Ci]
+29.4 +10.5 31 +30 +31 жарко 1014.6 994.7
18 20.06 СВ 1 10 км 3/0
[Ac cuf Ci]
+23.1 +13.0 53 +26 +26 жарко 1015.4 995.1 +30.6
21 20.06 С 1 10 км 3/0
[Ac lent Ci]
+19.1 +13.9 72 +21 +21 комфорт 1016.3 995.7
00 21.06 С 1 10 км 6/0
[Ac trans]
+18.2 +13.9 76 +20 +20 1017.2 996.5
03 21.06 штиль 0 10 км 6/0
[Ac trans Ci]
+19.1 +13.5 70 +20 +21 1017.8 997.2
06 21.06 В 3 10 км 4/0
[Ac trans]
+27.4 +14.7 46 +30 +36 жарко 1017.5 997.5 +17.8
09 21.06 Ю 4 10 км 5/5 600 м
[Cu med, cong]
+29.6 +9.7 29 +29 +35 жарко 1017.0 997.1
12 21.06 В 5 10 км 4/4 600 м
[Cu hum]
+31.4 +9.6 26 +31 +35 жарко 1016.4 996.6
15 21.06 В 4 10 км 6/6 600 м
[Cu hum]
+31.2 +11.5 30 +32 +32 жарко 1015.7 995.9
18 21.06 штиль 0 10 км 3/0
[Ac trans]
+24.5 +15.1 56 +27 +27 жарко 1016.2 996.0 +32.7
21 21.06 штиль 0 10 км 3/0
[Ac trans]
+19.3 +14.8 75 +21 +21 комфорт 1017.4 996.8
00 22.06 С 1 10 км 8/0
[Ac trans]
+19.1 +14.8 76 +22 +22 комфорт 1017.7 997.1
03 22.06 СВ 1 10 км 8/0
[Ac trans]
+18.7 +15.0 79 +21 +21 комфорт 1018.1 997.4
06 22.06 В 2 10 км 3/3 600 м
[Cu hum]
+28.1 +15.0 45 +31 +38 душно 1017.6 997.6 +18.0
09 22.06 ЮВ 3 10 км 8/8 600 м
[Cu med, cong]
+31.9 +8.2 23 +31 +34 жарко 1017.1 997.4
12 22.06 Ю 4 10 км 5/5 600 м
[Cu med, cong]
+33.5 +9.5 23 +33 +37 жарко 1016.6 997.0
15 22.06 ЮВ 3 10 км 8/4 600 м
[Cu med, cong Ci]
+31.9 +9.4 25 +31 +33 жарко 1016.0 996.3
18 22.06 С 1 10 км 6/0
[Ac trans Ci]
+23.8 +16.1 62 +27 +27 жарко 1016.7 996.4 +34.2
21 22.06 штиль 0 10 км ясно +19.5 +15.2 76 +21 +21 комфорт 1017.3 996.7
00 23.06 С 1 10 км 6/0
[Ci fib]
+17.3 +14.6 84 +18 +18 1017.5 996.8
03 23.06 С 1 10 км 8/3 600 м
[Cu med, cong Cc]
+19.7 +13.8 69 +23 +23 комфорт 1017.7 997.1
06 23.06 В 3 10 км 9/3 600 м
[Cu med, cong Ac cast Ci]
+27.3 +14.0 44 +29 +33 жарко 1017.2 997.2 +16.8
09 23.06 ЮВ 3 10 км 9/3 600 м
[Cu med, cong Ac cast Ci]
+32.4 +10.4 26 +32 +38 жарко 1016.3 996.6
12 23.06 ЮВ 4 10 км 9/5 600 м
[Cu med, cong Ac As Ci fib]
+34.1 +7.9 20 +32 +35 жарко 1015.3 995.7
15 23.06 В 3 10 км 8/0
[Ci]
+32.5 +11.6 28 +33 +35 жарко 1014.4 994.7
18 23.06 В 1 10 км 9/4 600 м
[Sc Ci]
+26.1 +13.6 46 +28 +28 жарко 1015.1 995.0 +35.0
21 23.06 В 1 10 км 8/8 600 м
[Sc]
+24.1 +13.9 53 +26 +26 жарко 1015.6 995.4
00 24.06 штиль 0 10 км 10/10 600 м
[Cb cap]
+23.1 +16.6 67 +28 +28 душно 1015.5 995.2
03 24.06 СВ 3 10 км 10/10 600 м
[Cb cap]
+23.1 +14.6 59 +27 +27 душно 1015.5 995.2
06 24.06 С 2 10 км 10/3 600 м
[Sc Ac lent]
+23.9 +16.4 63 +27 +29 жарко 1015.8 995.6 +22.0
09 24.06 В 2 10 км 10/5 600 м
[Sc Ac As]
+26.9 +17.6 57 +31 +34 душно 1016.3 996.2
12 24.06 С 2 10 км 9/3 600 м
[Cu med, cong Ac As]
+29.4 +19.4 55 +35 +39 очень
душно
1016.3 996.4
15 24.06 С 2 10 км 10 баллов +28.3 +19.8 60
18 24.06 С 2 10 км 9/8 600 м
[Sc Ac As]
+24.5 +20.2 77 +30 +30 очень
душно
1017.6 997.4 +30.4
21 24.06 С 3 10 км зарница 6/3 600 м
[Cb calv Ac As]
+22.2 +18.2 78 +27 +27 душно 1018.9 998.5
00 25.06 СВ 5 10 км 9/8 600 м
[Cb cap Ac As]
+21.8 +16.3 71 +26 +26 душно 1019.6 999.1
03 25.06 СВ 5 10 км 7 баллов +19.7 +15.1 75
06 25.06 СВ 6 10 км 3/0
[Ci]
+23.6 +14.6 57 +26 +30 жарко 1021.5 1001.1 +19.5
09 25.06 В 6 10 км 2 балла +26.3 +10.8 38
12 25.06 В 6 10 км 3/0
[Ci]
+28.1 +8.4 29 +28 +33 жарко 1022.2 1002.1
15 25.06 СВ 5 10 км 2 балла +26.9 +8.3 31
18 25.06 С 2 10 км 4/0
[Ci]
+21.1 +9.7 48 +22 +22 комфорт 1024.1 1003.5 +28.7
21 25.06 СВ 2 10 км 2 балла +17.1 +9.3 60
00 26.06 С 1 10 км ясно +15.9 +9.6 66
03 26.06 СЗ 1 10 км 2 балла +14.2 +9.0 71
06 26.06 СВ 4 10 км 6 баллов +21.6 +9.1 45 +12.9

 

Местоположение метеостанции Великий Бурлук (Харьковская область, Украина): широта 50.07 долгота 37.38 высота над уровнем моря 175 м.

В архиве по умолчанию представлена погода в Великом Бурлуке за последнюю неделю. Архивные данные за месяц целиком и за предыдущие месяцы, начиная с января 2011 года, Вы можете получить, выбрав интересующий диапазон дат из раскрывающегося списка и нажав кнопку "Ввод!".


*Определитесь, кто Вы:
робот инопланетянин человек

Внимание! Время в таблицах - всемирное. Для получения местного времени необходимо прибавить поправку, которая равна 2 ч.

Смотрите также архив погоды в соседних городах и на ближайших метеорологических станциях:

Погода в Новопскове (Луганская область, Украина) (45 км)
Погода в Валуйках (Белгородская область, Россия) (54 км)
Погода в Купянске (Харьковская область, Украина) (54 км)
Погода в Троицком (Луганская область, Украина) (64 км)
Погода в Комсомольском (Донецкая область, Украина) (80 км)
Погода в Новом Осколе (Белгородская область, Россия) (83 км)
Погода в Белгороде (Белгородская область, Россия) (84 км)
Погода в Харькове (Харьковская область, Украина) (90 км)
Погода в Сватово (Луганская область, Украина) (92 км)
Погода в Изюме (Харьковская область, Украина) (99 км)

Пояснения к столбцам:

Ветер - указаны скорость ветра в м/с - средняя за 10 мин, порывы в срок и между сроками (в фигурных скобках) и направление, откуда дует ветер: С - северный, СВ - северо-восточный, В - восточный, ЮВ - юго-восточный, Ю - южный, ЮЗ - юго-западный, З - западный, СЗ - северо-западный.
Видимость - горизонтальная дальность видимости в метрах или километрах. При видимости от 1 до 10 км при отсутствии осадков обычно наблюдается дымка, при ухудшении видимости до 1 км и менее - туман. В сухую погоду видимость может ухудшаться дымом, пылью или мглою.
Явления - указаны атмосферные явления, наблюдавшиеся в срок или в последний час перед сроком; фигурными скобками обозначены явления, наблюдавшиеся между сроками (за 1-3 часа до срока); квадратными скобками обозначены град или гололедные отложения с указанием их диаметра в мм.
Облачность - указаны через наклонную черту общая и нижняя облачность в баллах и высота нижней границы облаков в метрах; квадратными скобками обозначены формы облаков: Ci - перистые, Cs - перисто-слоистые, Cc - перисто-кучевые, Ac - высококучевые, As - высокослоистые, Sc - слоисто-кучевые, Ns - слоисто-дождевые, Cu - кучевые, Cb - кучево-дождевые. Подробнее классификацию облаков см. в Атласе облаков (PDF).
T - Температура воздуха - температура, измеренная на высоте 2 м над землей.
Td - Температура точки росы - температура, при понижении до которой содержащийся в воздухе водяной пар достигнет насыщения.
f - Относительная влажность воздуха - влажноcть воздуха, измеренная на высоте 2 м над землей.
Te - Эффективная температура - температура, которую ощущает одетый по сезону человек в тени. Характеристика душности погоды. При расчете учитывается влияние влажности воздуха и скорости ветра на теплоощущения человека.
Tes - Эффективная температура на солнце - температура, которую ощущает человек, с поправкой на солнечный нагрев. Характеристика знойности погоды. Зависит от высоты солнца над горизонтом, облачности и скорости ветра. Ночью, в пасмурную погоду, а также при ветре 12 м/с и более поправка равна нулю.
P - Атмосферное давление - приведенное к уровню моря атмосферное давление.
Po - Атмосферное давление - измеренное на уровне метеостанции атмосферное давление.
Tmin - Минимальная температура - минимум температуры воздуха на высоте 2 м над землей.
Tmax - Максимальная температура - максимум температуры воздуха на высоте 2 м над землей.
R - Количество осадков - Количество выпавших осадков за период времени, мм. При наведении курсора мыши на число - период времени, за который выпало указанное количество осадков.
R24 - Количество осадков - Количество выпавших осадков за 24 часа, мм.
S - Снежный покров - Высота снежного покрова, см. При наведении курсора мыши на число - состояние снежного покрова и степень покрытия местности в баллах.